THY81DR KBOS-LTFM

Flight info

Callsign THY81DR
Flight time N/A
Altitude 37000
Route CELTK7 CELTK DCT FRILL DCT KANNI N171E PORTI/M085F390 DCT 47N050W 49N040W 50N030W 51N020W DCT DINIM DCT ELSOX DCT GAPLI/N0490F390 DCT LIZAD/N0489F410 DCT JSY DCT TURDU DCT TADUP DCT TEPRI DCT POGZI DCT GELTA DCT LUVAL DCT BEGAR DCT TRA DCT GAMSA DCT GEDSO DCT LUMUS DCT SOMUN DCT NISVA DCT DEDIN DCT AYTEK
Aircraft A359/H-SDE2E3GHIJ3J4J5LM1ORWXY/LB1D1

Departure

Time 2026-05-07 07:22
Airport Boston Logan International Airport (KBOS)

Arrival

Time N/A
Airport İstanbul Airport (LTFM)
Time Latitude Longitude Altitude Speed Heading
2026-05-07 07:09 42.36893 -71.01556 32 ft 0 kts 186°
2026-05-07 07:17 42.36908 -71.01553 32 ft 4 kts 186°
2026-05-07 07:17 42.36934 -71.01549 32 ft 4 kts 186°
2026-05-07 07:18 42.36956 -71.01546 31 ft 4 kts 184°
2026-05-07 07:18 42.36982 -71.01548 32 ft 4 kts 160°
2026-05-07 07:18 42.37006 -71.01566 32 ft 4 kts 139°
2026-05-07 07:18 42.37016 -71.01578 31 ft 0 kts 136°
2026-05-07 07:20 42.37015 -71.01577 32 ft 1 kts 136°
2026-05-07 07:20 42.36985 -71.01535 32 ft 9 kts 133°
2026-05-07 07:20 42.36938 -71.01469 32 ft 11 kts 135°
2026-05-07 07:21 42.36882 -71.01393 32 ft 12 kts 135°
2026-05-07 07:21 42.35540 -70.99268 32 ft 0 kts 315°
2026-05-07 07:21 42.35633 -70.99392 32 ft 51 kts 315°
2026-05-07 07:21 42.36041 -70.99939 30 ft 113 kts 315°
2026-05-07 07:22 42.36733 -71.00847 40 ft 163 kts 317°
2026-05-07 07:22 42.37539 -71.01865 723 ft 153 kts 315°
2026-05-07 07:22 42.38282 -71.02905 1274 ft 158 kts 308°
2026-05-07 07:22 42.38921 -71.04227 1512 ft 179 kts 300°
2026-05-07 07:23 42.39574 -71.05784 1765 ft 201 kts 299°
2026-05-07 07:23 42.40286 -71.07501 2131 ft 217 kts 298°
2026-05-07 07:23 42.40809 -71.09473 2391 ft 238 kts 274°
2026-05-07 07:23 42.40411 -71.11666 2896 ft 247 kts 240°
2026-05-07 07:24 42.39435 -71.13596 3611 ft 250 kts 234°
2026-05-07 07:24 42.38392 -71.15495 4346 ft 251 kts 234°
2026-05-07 07:24 42.37343 -71.17399 5035 ft 254 kts 233°
2026-05-07 07:24 42.36039 -71.19032 5707 ft 259 kts 213°
2026-05-07 07:25 42.32482 -71.19491 7139 ft 272 kts 166°
2026-05-07 07:25 42.30696 -71.18647 7836 ft 278 kts 163°
2026-05-07 07:25 42.28877 -71.17716 8547 ft 281 kts 163°
2026-05-07 07:26 42.27029 -71.16777 9281 ft 284 kts 163°
2026-05-07 07:26 42.25231 -71.15582 9961 ft 293 kts 149°
2026-05-07 07:26 42.23598 -71.13842 10456 ft 307 kts 143°
2026-05-07 07:26 42.21937 -71.11888 10744 ft 326 kts 142°
2026-05-07 07:27 42.20204 -71.09835 11029 ft 344 kts 142°
2026-05-07 07:27 42.18369 -71.07625 11309 ft 361 kts 139°
2026-05-07 07:27 42.16775 -71.04885 11579 ft 383 kts 121°
2026-05-07 07:27 42.15928 -71.01412 12019 ft 397 kts 99°
2026-05-07 07:28 42.15989 -70.97715 12559 ft 404 kts 83°
2026-05-07 07:28 42.16452 -70.93949 13099 ft 408 kts 81°
2026-05-07 07:28 42.16959 -70.90157 13677 ft 413 kts 81°
2026-05-07 07:28 42.17450 -70.86340 14242 ft 414 kts 81°
2026-05-07 07:29 42.17949 -70.82464 14815 ft 420 kts 82°
2026-05-07 07:29 42.18437 -70.78569 15415 ft 422 kts 82°
2026-05-07 07:29 42.18922 -70.74645 15967 ft 426 kts 82°
2026-05-07 07:29 42.19404 -70.70723 16504 ft 430 kts 82°
2026-05-07 07:30 42.19894 -70.66732 17037 ft 433 kts 82°
2026-05-07 07:30 42.20386 -70.62703 17572 ft 437 kts 82°
2026-05-07 07:30 42.20881 -70.58634 18088 ft 440 kts 82°
2026-05-07 07:30 42.21372 -70.54585 18576 ft 444 kts 82°
2026-05-07 07:31 42.21873 -70.50451 19025 ft 448 kts 82°
2026-05-07 07:31 42.22383 -70.46220 19476 ft 453 kts 82°
2026-05-07 07:31 42.22884 -70.42059 19910 ft 458 kts 82°
2026-05-07 07:31 42.23394 -70.37801 20358 ft 462 kts 82°
2026-05-07 07:32 42.23908 -70.33497 20800 ft 466 kts 82°
2026-05-07 07:32 42.24426 -70.29155 21239 ft 471 kts 82°
2026-05-07 07:32 42.24945 -70.24767 21667 ft 475 kts 82°
2026-05-07 07:32 42.25469 -70.20338 22085 ft 480 kts 82°
2026-05-07 07:33 42.25997 -70.15868 22526 ft 483 kts 82°
2026-05-07 07:33 42.26401 -70.11337 22942 ft 487 kts 89°
2026-05-07 07:33 42.26238 -70.06816 23366 ft 489 kts 98°
2026-05-07 07:33 42.25772 -70.02240 23763 ft 492 kts 101°
2026-05-07 07:34 42.25174 -69.97677 24136 ft 497 kts 103°
2026-05-07 07:34 42.24520 -69.93077 24551 ft 500 kts 103°
2026-05-07 07:34 42.23858 -69.88446 24970 ft 504 kts 103°
2026-05-07 07:34 42.23471 -69.83714 25355 ft 509 kts 93°
2026-05-07 07:35 42.23657 -69.78981 25739 ft 514 kts 83°
2026-05-07 07:35 42.24209 -69.74202 26135 ft 517 kts 80°
2026-05-07 07:35 42.24894 -69.69425 26514 ft 521 kts 78°
2026-05-07 07:35 42.25652 -69.64610 26912 ft 524 kts 78°
2026-05-07 07:36 42.26431 -69.59796 27279 ft 527 kts 78°
2026-05-07 07:36 42.27213 -69.54949 27656 ft 530 kts 78°
2026-05-07 07:36 42.27988 -69.50070 27986 ft 533 kts 78°
2026-05-07 07:36 42.28757 -69.45146 28333 ft 536 kts 78°
2026-05-07 07:37 42.29518 -69.40203 28675 ft 539 kts 78°
2026-05-07 07:37 42.30266 -69.35298 28989 ft 541 kts 78°
2026-05-07 07:37 42.31023 -69.30288 29275 ft 545 kts 78°
2026-05-07 07:37 42.31778 -69.25265 29563 ft 547 kts 78°
2026-05-07 07:38 42.32535 -69.20194 29854 ft 550 kts 78°
2026-05-07 07:38 42.33293 -69.15119 30122 ft 553 kts 78°
2026-05-07 07:38 42.34057 -69.10015 30410 ft 555 kts 78°
2026-05-07 07:38 42.34820 -69.04898 30751 ft 555 kts 78°
2026-05-07 07:39 42.35520 -69.00186 31134 ft 554 kts 78°
2026-05-07 07:39 42.36251 -68.95247 31508 ft 553 kts 78°
2026-05-07 07:39 42.37004 -68.90147 31896 ft 552 kts 78°
2026-05-07 07:39 42.37752 -68.85053 32282 ft 550 kts 78°
2026-05-07 07:40 42.38496 -68.79977 32642 ft 550 kts 78°
2026-05-07 07:40 42.39236 -68.74913 32976 ft 548 kts 78°
2026-05-07 07:40 42.39975 -68.69844 33304 ft 547 kts 78°
2026-05-07 07:40 42.40712 -68.64781 33617 ft 547 kts 78°
2026-05-07 07:41 42.41442 -68.59743 33915 ft 546 kts 78°
2026-05-07 07:41 42.42161 -68.54756 34234 ft 545 kts 78°
2026-05-07 07:41 42.42884 -68.49733 34523 ft 544 kts 78°
2026-05-07 07:41 42.43605 -68.44702 34773 ft 543 kts 78°
2026-05-07 07:42 42.44323 -68.39677 35034 ft 542 kts 78°
2026-05-07 07:42 42.45037 -68.34664 35296 ft 542 kts 78°
2026-05-07 07:42 42.45749 -68.29648 35548 ft 541 kts 78°
2026-05-07 07:42 42.46457 -68.24645 35784 ft 540 kts 78°
2026-05-07 07:43 42.47154 -68.19707 36013 ft 540 kts 78°
2026-05-07 07:43 42.47858 -68.14700 36216 ft 539 kts 78°
2026-05-07 07:43 42.48557 -68.09705 36420 ft 539 kts 78°
2026-05-07 07:43 42.49251 -68.04714 36609 ft 538 kts 78°
2026-05-07 07:44 42.49945 -67.99714 36770 ft 539 kts 78°
2026-05-07 07:44 42.51324 -67.89763 36798 ft 534 kts 78°
2026-05-07 07:45 42.52684 -67.79889 36794 ft 532 kts 78°
2026-05-07 07:45 42.54031 -67.70044 36792 ft 532 kts 78°
2026-05-07 07:46 42.55361 -67.60249 36795 ft 531 kts 78°
2026-05-07 07:46 42.56693 -67.50373 36796 ft 531 kts 78°
2026-05-07 07:47 42.58017 -67.40486 36795 ft 531 kts 78°
2026-05-07 07:47 42.59320 -67.30674 36795 ft 530 kts 78°
2026-05-07 07:48 42.60625 -67.20800 36793 ft 530 kts 79°
2026-05-07 07:48 42.61917 -67.10947 36796 ft 529 kts 79°
2026-05-07 07:49 42.63348 -67.01221 36797 ft 528 kts 71°
2026-05-07 07:49 42.65922 -66.92504 36794 ft 525 kts 63°
2026-05-07 07:50 42.68968 -66.83488 36795 ft 524 kts 62°
2026-05-07 07:50 42.72062 -66.74492 36795 ft 524 kts 62°
2026-05-07 07:51 42.75120 -66.65555 36795 ft 523 kts 63°
2026-05-07 07:51 42.78174 -66.56564 36794 ft 523 kts 63°
2026-05-07 07:52 42.81215 -66.47570 36794 ft 523 kts 63°
2026-05-07 07:52 42.84254 -66.38547 36796 ft 523 kts 63°
2026-05-07 07:53 42.87268 -66.29578 36795 ft 523 kts 63°
2026-05-07 07:53 42.90285 -66.20566 36793 ft 523 kts 63°
2026-05-07 07:54 42.93299 -66.11529 36795 ft 522 kts 63°
2026-05-07 07:54 42.96307 -66.02486 36800 ft 522 kts 63°
2026-05-07 07:55 42.99292 -65.93479 36804 ft 522 kts 64°
2026-05-07 07:55 43.02271 -65.84458 36805 ft 520 kts 64°
2026-05-07 07:56 43.05243 -65.75435 36806 ft 520 kts 64°
2026-05-07 07:56 43.08139 -65.66620 36802 ft 519 kts 64°
2026-05-07 07:57 43.10910 -65.58143 36804 ft 519 kts 64°
2026-05-07 07:57 43.13363 -65.50612 36807 ft 519 kts 64°
2026-05-07 07:58 43.16216 -65.41837 36794 ft 519 kts 64°
2026-05-07 07:58 43.19150 -65.32781 36796 ft 519 kts 64°
2026-05-07 07:59 43.22056 -65.23783 36797 ft 519 kts 65°
2026-05-07 07:59 43.24975 -65.14718 36796 ft 519 kts 65°
2026-05-07 08:00 43.27883 -65.05650 36795 ft 518 kts 65°
2026-05-07 08:00 43.30784 -64.96575 36796 ft 518 kts 65°
2026-05-07 08:01 43.33659 -64.87549 36797 ft 518 kts 65°
2026-05-07 08:01 43.36544 -64.78462 36825 ft 518 kts 65°
2026-05-07 08:02 43.39420 -64.69368 36829 ft 517 kts 65°
2026-05-07 08:02 43.42267 -64.60344 36815 ft 517 kts 65°
2026-05-07 08:03 43.45058 -64.51457 36819 ft 517 kts 66°
2026-05-07 08:03 43.47906 -64.42363 36836 ft 517 kts 66°
2026-05-07 08:04 43.50734 -64.33306 36827 ft 516 kts 66°
2026-05-07 08:04 43.53560 -64.24210 36833 ft 516 kts 66°
2026-05-07 08:05 43.56383 -64.15100 36828 ft 516 kts 66°
2026-05-07 08:05 43.59183 -64.06033 36838 ft 516 kts 66°
2026-05-07 08:06 43.61928 -63.97104 36837 ft 516 kts 67°
2026-05-07 08:06 43.64572 -63.88478 36843 ft 515 kts 67°
2026-05-07 08:07 43.67365 -63.79344 36839 ft 515 kts 67°
2026-05-07 08:07 43.70133 -63.70256 36842 ft 515 kts 67°
2026-05-07 08:08 43.72876 -63.61230 36850 ft 514 kts 67°
2026-05-07 08:08 43.75621 -63.52148 36847 ft 514 kts 67°
2026-05-07 08:09 43.78372 -63.43010 36867 ft 514 kts 67°
2026-05-07 08:09 43.81118 -63.33864 36880 ft 513 kts 67°
2026-05-07 08:10 43.83852 -63.24734 36881 ft 513 kts 67°
2026-05-07 08:10 43.86562 -63.15651 36880 ft 512 kts 67°
2026-05-07 08:11 43.89274 -63.06522 36868 ft 511 kts 67°
2026-05-07 08:11 43.91880 -62.97716 36886 ft 510 kts 67°
2026-05-07 08:12 43.94572 -62.88587 36892 ft 510 kts 68°
2026-05-07 08:12 43.97239 -62.79511 36902 ft 509 kts 68°
2026-05-07 08:13 43.99909 -62.70401 36913 ft 508 kts 68°
2026-05-07 08:13 44.02550 -62.61349 36910 ft 508 kts 68°
2026-05-07 08:14 44.05198 -62.52242 36930 ft 507 kts 68°
2026-05-07 08:14 44.07832 -62.43149 36926 ft 506 kts 68°
2026-05-07 08:15 44.10452 -62.34060 36933 ft 506 kts 68°
2026-05-07 08:15 44.13056 -62.25008 36935 ft 506 kts 68°
2026-05-07 08:16 44.15663 -62.15915 36936 ft 506 kts 68°
2026-05-07 08:16 44.18264 -62.06809 36943 ft 505 kts 69°
2026-05-07 08:17 44.20856 -61.97697 36944 ft 505 kts 69°
2026-05-07 08:17 44.23426 -61.88629 36952 ft 505 kts 69°
2026-05-07 08:18 44.26002 -61.79510 36950 ft 505 kts 69°
2026-05-07 08:18 44.28571 -61.70378 36953 ft 505 kts 69°
2026-05-07 08:19 44.31131 -61.61244 36961 ft 505 kts 69°
2026-05-07 08:19 44.33687 -61.52091 36962 ft 504 kts 69°
2026-05-07 08:20 44.36091 -61.43452 36970 ft 504 kts 69°
2026-05-07 08:20 44.38627 -61.34311 36979 ft 504 kts 69°
2026-05-07 08:21 44.41156 -61.25158 37007 ft 504 kts 69°
2026-05-07 08:21 44.43676 -61.15997 37008 ft 503 kts 69°
2026-05-07 08:22 44.46165 -61.06916 37008 ft 503 kts 69°
2026-05-07 08:22 44.48664 -60.97764 37015 ft 502 kts 69°
2026-05-07 08:23 44.51155 -60.88605 37017 ft 502 kts 70°
2026-05-07 08:23 44.53622 -60.79506 37017 ft 501 kts 70°
2026-05-07 08:24 44.56093 -60.70360 37017 ft 501 kts 70°
2026-05-07 08:24 44.58559 -60.61185 37017 ft 501 kts 70°
2026-05-07 08:25 44.60992 -60.52101 37017 ft 500 kts 70°
2026-05-07 08:25 44.63436 -60.42946 37017 ft 500 kts 70°
2026-05-07 08:26 44.66958 -60.29696 37026 ft 500 kts 70°
2026-05-07 08:26 44.69381 -60.20532 37026 ft 500 kts 70°
2026-05-07 08:27 44.71795 -60.11367 37026 ft 500 kts 70°
2026-05-07 08:27 44.74184 -60.02262 37018 ft 500 kts 70°
2026-05-07 08:28 44.76585 -59.93078 37049 ft 499 kts 70°
2026-05-07 08:28 44.78976 -59.83902 37053 ft 498 kts 70°
2026-05-07 08:29 44.81336 -59.74799 37051 ft 497 kts 70°
2026-05-07 08:29 44.83704 -59.65632 37057 ft 497 kts 70°
2026-05-07 08:30 44.86065 -59.56459 37058 ft 498 kts 70°
2026-05-07 08:30 44.88310 -59.47700 37058 ft 497 kts 70°
2026-05-07 08:31 44.90642 -59.38570 37048 ft 497 kts 70°
2026-05-07 08:31 44.92979 -59.29385 37044 ft 497 kts 70°
2026-05-07 08:32 44.95306 -59.20190 37039 ft 496 kts 71°
2026-05-07 08:32 44.97503 -59.11481 37045 ft 496 kts 70°
2026-05-07 08:33 44.99812 -59.02302 37047 ft 496 kts 71°
2026-05-07 08:33 45.02120 -58.93094 37055 ft 496 kts 71°
2026-05-07 08:34 45.04402 -58.83943 37050 ft 495 kts 71°
2026-05-07 08:34 45.06690 -58.74731 37050 ft 495 kts 71°
2026-05-07 08:35 45.08954 -58.65581 37057 ft 495 kts 71°
2026-05-07 08:35 45.11218 -58.56390 37055 ft 494 kts 71°
2026-05-07 08:36 45.13475 -58.47196 37054 ft 494 kts 71°
2026-05-07 08:36 45.15722 -58.37994 37061 ft 494 kts 71°
2026-05-07 08:37 45.17885 -58.29113 37062 ft 494 kts 71°
2026-05-07 08:37 45.20053 -58.20171 37053 ft 494 kts 71°
2026-05-07 08:38 45.22284 -58.10933 37056 ft 494 kts 71°
2026-05-07 08:38 45.24506 -58.01695 37063 ft 494 kts 71°
2026-05-07 08:39 45.26701 -57.92530 37062 ft 493 kts 71°
2026-05-07 08:39 45.28904 -57.83294 37062 ft 492 kts 71°
2026-05-07 08:40 45.31096 -57.74066 37071 ft 493 kts 71°
2026-05-07 08:40 45.33271 -57.64870 37073 ft 492 kts 71°
2026-05-07 08:41 45.35450 -57.55621 37073 ft 492 kts 71°
2026-05-07 08:41 45.37621 -57.46367 37082 ft 492 kts 71°
2026-05-07 08:42 45.39768 -57.37168 37081 ft 492 kts 71°
2026-05-07 08:42 45.41917 -57.27932 37092 ft 492 kts 71°
2026-05-07 08:43 45.44059 -57.18686 37092 ft 491 kts 71°
2026-05-07 08:43 45.46182 -57.09482 37105 ft 491 kts 72°
2026-05-07 08:44 45.48311 -57.00212 37096 ft 490 kts 72°
2026-05-07 08:44 45.50424 -56.90969 37105 ft 490 kts 72°
2026-05-07 08:45 45.52438 -56.82125 37111 ft 489 kts 72°
2026-05-07 08:45 45.54178 -56.74453 37104 ft 489 kts 72°
2026-05-07 08:46 45.56268 -56.65207 37113 ft 488 kts 72°
2026-05-07 08:46 45.58352 -56.55946 37117 ft 488 kts 72°
2026-05-07 08:47 45.60406 -56.46782 37120 ft 487 kts 72°
2026-05-07 08:47 45.62442 -56.37608 37122 ft 484 kts 72°
2026-05-07 08:48 45.64498 -56.28396 37122 ft 487 kts 72°
2026-05-07 08:48 45.66532 -56.19236 37140 ft 487 kts 72°
2026-05-07 08:49 45.68550 -56.10023 37144 ft 485 kts 72°
2026-05-07 08:49 45.70454 -56.01272 37151 ft 487 kts 73°
2026-05-07 08:50 45.72158 -55.93519 37150 ft 486 kts 72°
2026-05-07 08:50 45.74167 -55.84315 37149 ft 484 kts 72°
2026-05-07 08:51 45.76151 -55.75124 37149 ft 486 kts 72°
2026-05-07 08:51 45.78132 -55.65860 37146 ft 487 kts 73°
2026-05-07 08:52 45.80126 -55.56575 37150 ft 485 kts 72°
2026-05-07 08:52 45.82106 -55.47322 37143 ft 488 kts 73°
2026-05-07 08:53 45.84081 -55.38052 37148 ft 486 kts 72°
2026-05-07 08:53 45.86061 -55.28770 37158 ft 486 kts 73°
2026-05-07 08:54 45.87985 -55.19509 37161 ft 486 kts 73°
2026-05-07 08:54 45.89956 -55.10197 37174 ft 488 kts 73°
2026-05-07 08:55 45.91932 -55.00855 37167 ft 488 kts 73°
2026-05-07 08:55 45.93877 -54.91539 37170 ft 487 kts 73°
2026-05-07 08:56 45.95780 -54.82315 37162 ft 485 kts 73°
2026-05-07 08:56 45.97687 -54.72921 37162 ft 487 kts 73°
2026-05-07 08:57 45.99591 -54.63579 37176 ft 486 kts 73°
2026-05-07 08:57 46.01493 -54.54246 37177 ft 485 kts 73°
2026-05-07 08:58 46.03386 -54.44943 37174 ft 485 kts 73°
2026-05-07 08:58 46.05269 -54.35678 37173 ft 487 kts 73°
2026-05-07 08:59 46.07165 -54.26321 37197 ft 485 kts 73°
2026-05-07 08:59 46.09035 -54.17017 37178 ft 482 kts 73°
2026-05-07 09:00 46.10866 -54.07791 37186 ft 484 kts 73°
2026-05-07 09:00 46.12705 -53.98445 37175 ft 484 kts 73°
2026-05-07 09:01 46.14560 -53.89099 37196 ft 485 kts 73°
2026-05-07 09:01 46.16391 -53.79815 37199 ft 483 kts 74°
2026-05-07 09:02 46.18208 -53.70491 37198 ft 483 kts 74°
2026-05-07 09:02 46.20030 -53.61158 37196 ft 481 kts 73°
2026-05-07 09:03 46.21835 -53.51871 37200 ft 482 kts 74°
2026-05-07 09:03 46.23629 -53.42529 37202 ft 483 kts 74°
2026-05-07 09:04 46.25432 -53.33155 37204 ft 487 kts 75°
2026-05-07 09:04 46.27182 -53.23799 37203 ft 484 kts 74°
2026-05-07 09:05 46.28962 -53.14401 37209 ft 483 kts 74°
2026-05-07 09:05 46.30742 -53.05076 37210 ft 483 kts 74°
2026-05-07 09:06 46.32501 -52.95733 37212 ft 485 kts 74°
2026-05-07 09:06 46.34267 -52.86307 37209 ft 486 kts 74°
2026-05-07 09:07 46.36027 -52.76855 37212 ft 485 kts 74°
2026-05-07 09:07 46.37785 -52.67414 37213 ft 486 kts 74°
2026-05-07 09:08 46.39533 -52.57964 37229 ft 486 kts 74°
2026-05-07 09:08 46.41262 -52.48513 37230 ft 483 kts 75°
2026-05-07 09:09 46.42981 -52.39070 37226 ft 484 kts 75°
2026-05-07 09:09 46.44675 -52.29703 37230 ft 483 kts 75°
2026-05-07 09:10 46.46375 -52.20238 37228 ft 486 kts 75°
2026-05-07 09:10 46.48082 -52.10715 37231 ft 489 kts 75°
2026-05-07 09:11 46.48925 -52.06015 37376 ft 485 kts 75°
2026-05-07 09:11 46.49791 -52.01292 37620 ft 483 kts 72°
2026-05-07 09:11 46.50879 -51.96686 37841 ft 483 kts 69°
2026-05-07 09:11 46.52048 -51.92104 38111 ft 481 kts 68°
2026-05-07 09:12 46.53232 -51.87555 38293 ft 483 kts 68°
2026-05-07 09:12 46.54409 -51.83050 38484 ft 482 kts 68°
2026-05-07 09:12 46.55598 -51.78478 38646 ft 484 kts 68°
2026-05-07 09:12 46.56790 -51.73904 38851 ft 482 kts 68°
2026-05-07 09:13 46.57978 -51.69332 38967 ft 484 kts 68°
2026-05-07 09:13 46.59156 -51.64747 39122 ft 485 kts 69°
2026-05-07 09:13 46.60334 -51.60114 39224 ft 487 kts 69°
2026-05-07 09:13 46.61509 -51.55477 39231 ft 489 kts 69°
2026-05-07 09:14 46.63872 -51.46248 39235 ft 488 kts 68°
2026-05-07 09:14 46.66256 -51.36983 39228 ft 487 kts 69°
2026-05-07 09:15 46.68618 -51.27667 39228 ft 490 kts 69°
2026-05-07 09:15 46.70961 -51.18423 39231 ft 488 kts 69°
2026-05-07 09:16 46.73278 -51.09114 39226 ft 486 kts 69°
2026-05-07 09:16 46.75583 -50.99901 39229 ft 485 kts 69°
2026-05-07 09:17 46.77900 -50.90662 39227 ft 488 kts 69°
2026-05-07 09:17 46.80208 -50.81358 39225 ft 487 kts 69°
2026-05-07 09:18 46.82511 -50.72039 39220 ft 487 kts 69°
2026-05-07 09:18 46.84791 -50.62777 39216 ft 487 kts 69°
2026-05-07 09:19 46.87082 -50.53438 39224 ft 487 kts 69°
2026-05-07 09:19 46.89363 -50.44101 39220 ft 487 kts 69°
2026-05-07 09:20 46.91638 -50.34752 39219 ft 487 kts 69°
2026-05-07 09:20 46.93892 -50.25452 39220 ft 487 kts 69°
2026-05-07 09:21 46.96155 -50.16073 39220 ft 487 kts 69°
2026-05-07 09:21 46.98393 -50.06759 39221 ft 487 kts 69°
2026-05-07 09:22 47.00645 -49.97373 39223 ft 487 kts 69°
2026-05-07 09:22 47.02976 -49.88060 39220 ft 487 kts 68°
2026-05-07 09:23 47.05338 -49.78744 39220 ft 487 kts 68°
2026-05-07 09:23 47.07675 -49.69441 39220 ft 487 kts 69°
2026-05-07 09:24 47.09982 -49.60176 39221 ft 486 kts 69°
2026-05-07 09:24 47.12295 -49.50825 39217 ft 486 kts 69°
2026-05-07 09:25 47.14599 -49.41480 39219 ft 486 kts 69°
2026-05-07 09:25 47.16895 -49.32138 39223 ft 486 kts 69°
2026-05-07 09:26 47.19172 -49.22832 39218 ft 486 kts 69°
2026-05-07 09:26 47.21455 -49.13459 39220 ft 485 kts 69°
2026-05-07 09:27 47.23725 -49.04101 39216 ft 485 kts 69°
2026-05-07 09:28 47.27099 -48.90116 39221 ft 485 kts 69°
2026-05-07 09:28 47.29349 -48.80736 39219 ft 485 kts 69°
2026-05-07 09:29 47.31584 -48.71375 39216 ft 484 kts 69°
2026-05-07 09:29 47.33819 -48.61998 39224 ft 484 kts 69°
2026-05-07 09:30 47.36038 -48.52628 39219 ft 483 kts 70°
2026-05-07 09:30 47.38233 -48.43326 39216 ft 483 kts 70°
2026-05-07 09:31 47.40433 -48.33960 39222 ft 482 kts 70°
2026-05-07 09:31 47.42623 -48.24605 39222 ft 482 kts 70°
2026-05-07 09:32 47.44803 -48.15238 39217 ft 481 kts 70°
2026-05-07 09:32 47.46971 -48.05882 39220 ft 480 kts 70°
2026-05-07 09:33 47.49115 -47.96596 39218 ft 480 kts 70°
2026-05-07 09:33 47.51271 -47.87220 39217 ft 480 kts 70°
2026-05-07 09:34 47.53413 -47.77858 39223 ft 480 kts 70°
2026-05-07 09:34 47.55533 -47.68555 39223 ft 480 kts 70°
2026-05-07 09:35 47.57663 -47.59171 39215 ft 480 kts 70°
2026-05-07 09:35 47.59783 -47.49784 39211 ft 480 kts 70°
2026-05-07 09:36 47.61885 -47.40437 39211 ft 480 kts 70°
2026-05-07 09:36 47.63637 -47.32607 39211 ft 481 kts 71°
2026-05-07 09:37 47.65744 -47.23161 39202 ft 481 kts 71°
2026-05-07 09:37 47.67840 -47.13729 39212 ft 482 kts 71°
2026-05-07 09:38 47.69883 -47.04491 39210 ft 482 kts 71°
2026-05-07 09:38 47.71851 -46.95542 39213 ft 482 kts 71°
2026-05-07 09:39 47.73926 -46.86071 39214 ft 482 kts 71°
2026-05-07 09:39 47.75995 -46.76590 39210 ft 482 kts 71°
2026-05-07 09:40 47.78054 -46.67102 39207 ft 482 kts 71°
2026-05-07 09:40 47.80091 -46.57681 39200 ft 482 kts 71°
2026-05-07 09:41 47.82135 -46.48184 39197 ft 482 kts 71°
2026-05-07 09:41 47.84171 -46.38685 39195 ft 482 kts 71°
2026-05-07 09:42 47.86196 -46.29196 39200 ft 481 kts 71°
2026-05-07 09:42 47.88212 -46.19696 39201 ft 481 kts 71°
2026-05-07 09:43 47.90223 -46.10169 39182 ft 481 kts 71°
2026-05-07 09:43 47.92222 -46.00655 39200 ft 480 kts 72°
2026-05-07 09:44 47.94215 -45.91129 39198 ft 480 kts 72°
2026-05-07 09:44 47.96186 -45.81661 39182 ft 481 kts 72°
2026-05-07 09:45 47.98165 -45.72113 39200 ft 481 kts 72°
2026-05-07 09:45 48.00139 -45.62543 39202 ft 481 kts 72°
2026-05-07 09:46 48.02086 -45.53059 39199 ft 481 kts 72°
2026-05-07 09:46 48.04041 -45.43493 39192 ft 480 kts 72°
2026-05-07 09:47 48.05984 -45.33937 39183 ft 480 kts 72°
2026-05-07 09:47 48.07917 -45.24384 39198 ft 480 kts 72°
2026-05-07 09:48 48.09844 -45.14819 39184 ft 480 kts 72°
2026-05-07 09:48 48.11752 -45.05296 39183 ft 480 kts 72°
2026-05-07 09:49 48.13659 -44.95728 39183 ft 480 kts 72°
2026-05-07 09:49 48.15563 -44.86131 39183 ft 480 kts 72°
2026-05-07 09:50 48.17448 -44.76584 39182 ft 481 kts 72°
2026-05-07 09:50 48.19341 -44.66961 39182 ft 481 kts 72°
2026-05-07 09:51 48.21225 -44.57323 39182 ft 481 kts 72°
2026-05-07 09:51 48.23089 -44.47733 39183 ft 481 kts 72°
2026-05-07 09:52 48.24959 -44.38074 39189 ft 481 kts 72°
2026-05-07 09:52 48.26818 -44.28415 39183 ft 481 kts 72°
2026-05-07 09:53 48.28661 -44.18791 39183 ft 482 kts 72°
2026-05-07 09:53 48.30507 -44.09107 39183 ft 482 kts 73°
2026-05-07 09:54 48.32347 -43.99412 39183 ft 482 kts 73°
2026-05-07 09:54 48.34177 -43.89712 39182 ft 482 kts 73°
2026-05-07 09:55 48.35996 -43.80016 39183 ft 482 kts 73°
2026-05-07 09:55 48.37809 -43.70300 39182 ft 482 kts 73°
2026-05-07 09:56 48.39603 -43.60637 39183 ft 481 kts 73°
2026-05-07 09:56 48.41398 -43.50928 39183 ft 481 kts 73°
2026-05-07 09:57 48.43184 -43.41212 39183 ft 481 kts 73°
2026-05-07 09:57 48.44961 -43.31493 39184 ft 480 kts 73°
2026-05-07 09:58 48.46728 -43.21775 39183 ft 480 kts 73°
2026-05-07 09:58 48.48473 -43.12124 39183 ft 479 kts 73°
2026-05-07 09:59 48.50156 -43.02776 39184 ft 479 kts 73°
2026-05-07 09:59 48.51895 -42.93067 39184 ft 479 kts 73°
2026-05-07 10:00 48.53625 -42.83352 39183 ft 479 kts 73°
2026-05-07 10:00 48.55332 -42.73712 39182 ft 479 kts 73°
2026-05-07 10:01 48.57045 -42.63990 39182 ft 478 kts 73°
2026-05-07 10:01 48.58744 -42.54287 39183 ft 478 kts 73°
2026-05-07 10:02 48.60437 -42.44566 39183 ft 478 kts 73°
2026-05-07 10:02 48.62112 -42.34895 39183 ft 478 kts 73°
2026-05-07 10:03 48.63792 -42.25145 39182 ft 478 kts 73°
2026-05-07 10:03 48.65453 -42.15446 39183 ft 478 kts 73°
2026-05-07 10:04 48.67114 -42.05703 39194 ft 478 kts 73°
2026-05-07 10:04 48.68767 -41.95949 39199 ft 478 kts 73°
2026-05-07 10:05 48.70398 -41.86259 39182 ft 478 kts 73°
2026-05-07 10:05 48.72036 -41.76487 39184 ft 478 kts 73°
2026-05-07 10:06 48.73665 -41.66707 39183 ft 479 kts 73°
2026-05-07 10:06 48.75287 -41.56915 39183 ft 478 kts 73°
2026-05-07 10:07 48.76895 -41.47159 39214 ft 479 kts 73°
2026-05-07 10:07 48.78502 -41.37333 39221 ft 479 kts 73°
2026-05-07 10:08 48.80097 -41.27518 39224 ft 479 kts 73°
2026-05-07 10:08 48.81674 -41.17768 39217 ft 479 kts 73°
2026-05-07 10:09 48.83259 -41.07936 39221 ft 479 kts 73°
2026-05-07 10:09 48.84832 -40.98095 39220 ft 480 kts 73°
2026-05-07 10:10 48.86399 -40.88235 39225 ft 480 kts 73°
2026-05-07 10:10 48.87959 -40.78362 39220 ft 480 kts 74°
2026-05-07 10:11 48.89501 -40.68540 39221 ft 481 kts 74°
2026-05-07 10:11 48.91045 -40.58655 39219 ft 481 kts 74°
2026-05-07 10:12 48.92583 -40.48750 39221 ft 481 kts 74°
2026-05-07 10:12 48.94114 -40.38828 39216 ft 481 kts 74°
2026-05-07 10:13 48.95624 -40.28971 39217 ft 481 kts 74°
2026-05-07 10:13 48.97136 -40.19048 39222 ft 482 kts 74°
2026-05-07 10:14 48.98610 -40.09319 39226 ft 482 kts 74°
2026-05-07 10:14 49.00096 -39.99433 39221 ft 482 kts 74°
2026-05-07 10:15 49.01559 -39.89459 39223 ft 482 kts 75°
2026-05-07 10:15 49.02994 -39.79454 39210 ft 482 kts 75°
2026-05-07 10:16 49.04412 -39.69523 39217 ft 482 kts 75°
2026-05-07 10:16 49.05838 -39.59515 39206 ft 482 kts 75°
2026-05-07 10:17 49.07255 -39.49507 39206 ft 482 kts 75°
2026-05-07 10:17 49.08656 -39.39552 39210 ft 483 kts 75°
2026-05-07 10:18 49.10058 -39.29512 39206 ft 483 kts 75°
2026-05-07 10:18 49.11450 -39.19497 39217 ft 483 kts 75°
2026-05-07 10:19 49.12833 -39.09456 39214 ft 482 kts 75°
2026-05-07 10:19 49.14202 -38.99427 39217 ft 483 kts 75°
2026-05-07 10:20 49.15561 -38.89440 39212 ft 482 kts 75°
2026-05-07 10:20 49.16920 -38.79374 39216 ft 482 kts 76°
2026-05-07 10:21 49.18271 -38.69315 39215 ft 482 kts 76°
2026-05-07 10:21 49.19601 -38.59325 39213 ft 482 kts 76°
2026-05-07 10:22 49.20927 -38.49284 39212 ft 482 kts 76°
2026-05-07 10:22 49.22243 -38.39253 39208 ft 482 kts 76°
2026-05-07 10:23 49.23553 -38.29195 39209 ft 482 kts 76°
2026-05-07 10:23 49.24857 -38.19121 39212 ft 482 kts 76°
2026-05-07 10:24 49.25933 -38.10744 39212 ft 482 kts 76°
2026-05-07 10:24 49.27219 -38.00665 39214 ft 482 kts 76°
2026-05-07 10:25 49.28704 -37.88949 39207 ft 482 kts 76°
2026-05-07 10:25 49.29762 -37.80534 39215 ft 482 kts 76°
2026-05-07 10:26 49.31013 -37.70507 39206 ft 482 kts 76°
2026-05-07 10:26 49.32267 -37.60396 39204 ft 482 kts 76°
2026-05-07 10:27 49.33510 -37.50283 39197 ft 482 kts 77°
2026-05-07 10:27 49.34743 -37.40171 39192 ft 482 kts 77°
2026-05-07 10:28 49.35968 -37.30061 39202 ft 483 kts 77°
2026-05-07 10:28 49.37185 -37.19940 39195 ft 482 kts 77°
2026-05-07 10:29 49.38386 -37.09866 39192 ft 482 kts 77°
2026-05-07 10:29 49.39586 -36.99728 39183 ft 483 kts 77°
2026-05-07 10:30 49.41367 -36.84521 39182 ft 483 kts 77°
2026-05-07 10:30 49.42545 -36.74365 39198 ft 483 kts 77°
2026-05-07 10:31 49.43714 -36.64194 39183 ft 483 kts 77°
2026-05-07 10:31 49.44807 -36.54636 39197 ft 484 kts 77°
2026-05-07 10:32 49.45962 -36.44445 39184 ft 483 kts 77°
2026-05-07 10:32 49.47103 -36.34275 39194 ft 483 kts 77°
2026-05-07 10:33 49.48233 -36.24140 39182 ft 483 kts 77°
2026-05-07 10:33 49.49333 -36.14187 39195 ft 483 kts 78°
2026-05-07 10:34 49.50450 -36.03974 39190 ft 484 kts 78°
2026-05-07 10:34 49.51377 -35.95467 39199 ft 484 kts 78°
2026-05-07 10:35 49.52389 -35.86067 39193 ft 484 kts 78°
2026-05-07 10:35 49.53477 -35.75898 39191 ft 483 kts 78°
2026-05-07 10:36 49.54546 -35.65836 39201 ft 484 kts 78°
2026-05-07 10:36 49.55621 -35.55610 39195 ft 483 kts 78°
2026-05-07 10:37 49.56688 -35.45371 39199 ft 484 kts 78°
2026-05-07 10:37 49.57748 -35.35133 39193 ft 483 kts 78°
2026-05-07 10:38 49.58787 -35.24957 39186 ft 483 kts 78°
2026-05-07 10:38 49.59827 -35.14710 39194 ft 483 kts 78°
2026-05-07 10:39 49.60807 -35.04969 39199 ft 482 kts 78°
2026-05-07 10:39 49.61822 -34.94787 39198 ft 482 kts 78°
2026-05-07 10:40 49.62831 -34.84568 39194 ft 482 kts 78°
2026-05-07 10:40 49.63831 -34.74348 39196 ft 481 kts 78°
2026-05-07 10:41 49.64823 -34.64107 39183 ft 481 kts 78°
2026-05-07 10:41 49.65799 -34.53943 39194 ft 481 kts 78°
2026-05-07 10:42 49.66770 -34.43715 39189 ft 481 kts 79°
2026-05-07 10:42 49.67734 -34.33488 39195 ft 480 kts 79°
2026-05-07 10:43 49.68686 -34.23278 39183 ft 480 kts 79°
2026-05-07 10:43 49.69627 -34.13076 39186 ft 480 kts 79°
2026-05-07 10:44 49.70555 -34.02923 39189 ft 480 kts 79°
2026-05-07 10:44 49.71479 -33.92716 39184 ft 480 kts 79°
2026-05-07 10:45 49.72395 -33.82494 39184 ft 480 kts 79°
2026-05-07 10:45 49.73302 -33.72269 39182 ft 480 kts 79°
2026-05-07 10:46 49.74198 -33.62065 39183 ft 480 kts 79°
2026-05-07 10:46 49.75087 -33.51823 39183 ft 481 kts 79°
2026-05-07 10:47 49.75969 -33.41562 39184 ft 481 kts 79°
2026-05-07 10:47 49.76801 -33.31784 39182 ft 481 kts 79°
2026-05-07 10:48 49.77651 -33.21710 39183 ft 482 kts 79°
2026-05-07 10:48 49.78509 -33.11400 39184 ft 482 kts 80°
2026-05-07 10:49 49.79357 -33.01087 39183 ft 482 kts 80°
2026-05-07 10:49 49.80191 -32.90850 39183 ft 483 kts 80°
2026-05-07 10:50 49.81023 -32.80515 39183 ft 483 kts 80°
2026-05-07 10:50 49.81846 -32.70168 39184 ft 484 kts 80°
2026-05-07 10:51 49.82660 -32.59814 39183 ft 484 kts 80°
2026-05-07 10:51 49.83428 -32.49941 39184 ft 485 kts 80°
2026-05-07 10:52 49.84223 -32.39566 39183 ft 485 kts 81°
2026-05-07 10:52 49.85010 -32.29184 39182 ft 485 kts 80°
2026-05-07 10:53 49.85794 -32.18770 39180 ft 485 kts 81°
2026-05-07 10:53 49.86567 -32.08376 39183 ft 485 kts 81°
2026-05-07 10:54 49.87324 -31.98037 39182 ft 485 kts 81°
2026-05-07 10:54 49.88076 -31.87608 39182 ft 485 kts 81°
2026-05-07 10:55 49.88819 -31.77203 39182 ft 485 kts 81°
2026-05-07 10:55 49.89550 -31.66856 39183 ft 485 kts 81°
2026-05-07 10:56 49.90277 -31.56409 39182 ft 485 kts 81°
2026-05-07 10:56 49.90990 -31.45986 39182 ft 486 kts 81°
2026-05-07 10:57 49.91696 -31.35552 39183 ft 487 kts 81°
2026-05-07 10:57 49.92394 -31.25147 39183 ft 486 kts 81°
2026-05-07 10:58 49.93081 -31.14744 39184 ft 487 kts 82°
2026-05-07 10:58 49.93757 -31.04272 39167 ft 487 kts 82°
2026-05-07 10:59 49.94428 -30.93760 39119 ft 488 kts 82°
2026-05-07 10:59 49.95093 -30.83323 39119 ft 488 kts 82°
2026-05-07 11:00 49.95737 -30.72967 39119 ft 488 kts 82°
2026-05-07 11:00 49.96345 -30.62971 39119 ft 489 kts 82°
2026-05-07 11:01 49.96984 -30.52489 39119 ft 490 kts 82°
2026-05-07 11:01 49.97612 -30.41920 39119 ft 490 kts 82°
2026-05-07 11:02 49.98233 -30.31358 39119 ft 491 kts 83°
2026-05-07 11:02 49.98834 -30.20869 39120 ft 490 kts 82°
2026-05-07 11:03 49.99443 -30.10286 39119 ft 490 kts 83°
2026-05-07 11:03 50.00155 -29.99743 39125 ft 488 kts 77°
2026-05-07 11:04 50.01521 -29.89414 39118 ft 487 kts 75°
2026-05-07 11:04 50.02995 -29.79146 39119 ft 488 kts 75°
2026-05-07 11:05 50.04382 -29.69537 39101 ft 489 kts 75°
2026-05-07 11:05 50.05878 -29.59186 39101 ft 489 kts 75°
2026-05-07 11:06 50.07350 -29.48827 39100 ft 490 kts 75°
2026-05-07 11:06 50.08791 -29.38544 39089 ft 489 kts 76°
2026-05-07 11:07 50.10235 -29.28185 39082 ft 489 kts 76°
2026-05-07 11:07 50.11669 -29.17810 39082 ft 490 kts 76°
2026-05-07 11:08 50.13095 -29.07425 39083 ft 490 kts 76°
2026-05-07 11:08 50.14516 -28.97015 39082 ft 490 kts 76°
2026-05-07 11:09 50.15919 -28.86698 39081 ft 491 kts 76°
2026-05-07 11:09 50.17263 -28.76705 39082 ft 491 kts 76°
2026-05-07 11:10 50.18652 -28.66284 39082 ft 490 kts 77°
2026-05-07 11:10 50.20042 -28.55819 39089 ft 491 kts 77°
2026-05-07 11:11 50.21411 -28.45437 39091 ft 490 kts 77°
2026-05-07 11:11 50.22776 -28.34993 39091 ft 491 kts 77°
2026-05-07 11:12 50.23905 -28.26301 39092 ft 490 kts 77°
2026-05-07 11:12 50.25470 -28.14160 39090 ft 490 kts 77°
2026-05-07 11:13 50.26593 -28.05423 39091 ft 491 kts 77°
2026-05-07 11:13 50.27914 -27.94999 39091 ft 491 kts 77°
2026-05-07 11:14 50.29224 -27.84609 39091 ft 491 kts 77°
2026-05-07 11:14 50.30534 -27.74143 39091 ft 491 kts 77°
2026-05-07 11:15 50.31823 -27.63723 39092 ft 491 kts 77°
2026-05-07 11:15 50.33120 -27.53215 39092 ft 491 kts 77°
2026-05-07 11:16 50.34403 -27.42707 39091 ft 492 kts 78°
2026-05-07 11:16 50.35681 -27.32156 39091 ft 492 kts 78°
2026-05-07 11:17 50.36948 -27.21624 39091 ft 493 kts 78°
2026-05-07 11:17 50.38200 -27.11124 39091 ft 493 kts 78°
2026-05-07 11:18 50.39452 -27.00541 39066 ft 493 kts 78°
2026-05-07 11:18 50.40690 -26.89999 39053 ft 494 kts 78°
2026-05-07 11:19 50.41865 -26.79899 39055 ft 494 kts 78°
2026-05-07 11:19 50.43055 -26.69598 39055 ft 494 kts 78°
2026-05-07 11:20 50.44266 -26.59046 39054 ft 494 kts 78°
2026-05-07 11:20 50.45471 -26.48423 39055 ft 494 kts 78°
2026-05-07 11:21 50.46669 -26.37778 39054 ft 494 kts 79°
2026-05-07 11:21 50.47849 -26.27208 39054 ft 494 kts 79°
2026-05-07 11:22 50.49027 -26.16565 39054 ft 494 kts 79°
2026-05-07 11:22 50.50196 -26.05900 39054 ft 494 kts 79°
2026-05-07 11:23 50.51346 -25.95318 39054 ft 494 kts 79°
2026-05-07 11:23 50.52496 -25.84652 39054 ft 494 kts 79°
2026-05-07 11:24 50.53593 -25.74382 39054 ft 494 kts 79°
2026-05-07 11:24 50.54648 -25.64421 39054 ft 495 kts 79°
2026-05-07 11:25 50.55763 -25.53823 39054 ft 495 kts 79°
2026-05-07 11:25 50.56876 -25.43129 39054 ft 495 kts 79°
2026-05-07 11:26 50.57978 -25.32419 39054 ft 495 kts 79°
2026-05-07 11:26 50.59065 -25.21766 39054 ft 496 kts 80°
2026-05-07 11:27 50.60152 -25.11023 39054 ft 496 kts 80°
2026-05-07 11:27 50.61227 -25.00296 39054 ft 496 kts 80°
2026-05-07 11:28 50.62291 -24.89556 39054 ft 496 kts 80°
2026-05-07 11:28 50.63340 -24.78877 39054 ft 496 kts 80°
2026-05-07 11:29 50.64387 -24.68121 39054 ft 496 kts 80°
2026-05-07 11:29 50.65423 -24.57372 39028 ft 496 kts 81°
2026-05-07 11:30 50.66452 -24.46585 39028 ft 496 kts 81°
2026-05-07 11:30 50.67460 -24.35904 39026 ft 496 kts 81°
2026-05-07 11:31 50.68466 -24.25120 39027 ft 496 kts 81°
2026-05-07 11:31 50.69462 -24.14347 39026 ft 496 kts 81°
2026-05-07 11:32 50.70942 -23.98175 39028 ft 496 kts 81°
2026-05-07 11:33 50.71838 -23.88230 39026 ft 496 kts 81°
2026-05-07 11:33 50.72785 -23.77609 39026 ft 497 kts 81°
2026-05-07 11:34 50.73739 -23.66791 39028 ft 497 kts 81°
2026-05-07 11:34 50.74682 -23.55980 39027 ft 497 kts 82°
2026-05-07 11:35 50.75253 -23.49372 39027 ft 497 kts 82°
2026-05-07 11:35 50.76176 -23.38615 39035 ft 497 kts 82°
2026-05-07 11:36 50.77095 -23.27774 39035 ft 497 kts 82°
2026-05-07 11:36 50.78006 -23.16914 39035 ft 497 kts 82°
2026-05-07 11:37 50.78901 -23.06098 39036 ft 498 kts 82°
2026-05-07 11:37 50.79772 -22.95462 39036 ft 498 kts 82°
2026-05-07 11:38 50.80653 -22.84599 39036 ft 498 kts 82°
2026-05-07 11:38 50.81525 -22.73708 39036 ft 498 kts 82°
2026-05-07 11:39 50.82383 -22.62843 39036 ft 498 kts 82°
2026-05-07 11:39 50.83230 -22.52012 39036 ft 498 kts 83°
2026-05-07 11:40 50.84069 -22.41125 39036 ft 499 kts 83°
2026-05-07 11:40 50.84901 -22.30212 39039 ft 498 kts 83°
2026-05-07 11:41 50.85722 -22.19328 39034 ft 498 kts 83°
2026-05-07 11:41 50.86515 -22.08684 39037 ft 499 kts 83°
2026-05-07 11:42 50.87309 -21.97848 38995 ft 498 kts 83°
2026-05-07 11:42 50.88092 -21.86988 38985 ft 500 kts 83°
2026-05-07 11:43 50.88865 -21.76017 38992 ft 500 kts 83°
2026-05-07 11:43 50.89632 -21.65152 38992 ft 499 kts 83°
2026-05-07 11:44 50.90396 -21.54208 38992 ft 499 kts 83°
2026-05-07 11:44 50.91147 -21.43263 38992 ft 499 kts 84°
2026-05-07 11:45 50.91891 -21.32310 38992 ft 499 kts 84°
2026-05-07 11:45 50.92618 -21.21432 38992 ft 499 kts 84°
2026-05-07 11:46 50.93327 -21.10627 38991 ft 499 kts 84°
2026-05-07 11:46 50.93996 -21.00271 39012 ft 499 kts 84°
2026-05-07 11:47 50.94695 -20.89335 39015 ft 499 kts 84°
2026-05-07 11:47 50.95382 -20.78378 39001 ft 499 kts 84°
2026-05-07 11:48 50.96059 -20.67490 39008 ft 499 kts 84°
2026-05-07 11:48 50.96732 -20.56518 39014 ft 499 kts 84°
2026-05-07 11:49 50.97390 -20.45539 39002 ft 499 kts 84°
2026-05-07 11:49 50.98034 -20.34625 39003 ft 499 kts 85°
2026-05-07 11:50 50.98669 -20.23630 39012 ft 499 kts 85°
2026-05-07 11:50 50.99293 -20.12659 38987 ft 499 kts 85°
2026-05-07 11:51 50.99913 -20.01672 38985 ft 499 kts 85°
2026-05-07 11:51 51.00366 -19.90667 38984 ft 498 kts 88°
2026-05-07 11:52 51.00512 -19.79733 38988 ft 498 kts 89°
2026-05-07 11:52 51.00651 -19.68719 38988 ft 499 kts 89°
2026-05-07 11:53 51.00831 -19.57699 38986 ft 498 kts 89°
2026-05-07 11:53 51.01022 -19.46743 38994 ft 498 kts 89°
2026-05-07 11:54 51.01206 -19.35736 38985 ft 499 kts 89°
2026-05-07 11:54 51.01375 -19.24722 38986 ft 498 kts 89°
2026-05-07 11:55 51.01532 -19.13719 38993 ft 498 kts 89°
2026-05-07 11:55 51.01680 -19.02721 38990 ft 498 kts 89°
2026-05-07 11:56 51.01818 -18.91705 38991 ft 498 kts 89°
2026-05-07 11:56 51.01947 -18.80683 38989 ft 498 kts 89°
2026-05-07 11:57 51.02065 -18.69735 38992 ft 498 kts 89°
2026-05-07 11:57 51.02175 -18.58725 38992 ft 498 kts 89°
2026-05-07 11:58 51.02273 -18.47728 38992 ft 498 kts 90°
2026-05-07 11:58 51.02357 -18.36715 38984 ft 498 kts 90°
2026-05-07 11:59 51.02427 -18.25706 38992 ft 498 kts 90°
2026-05-07 11:59 51.02498 -18.14708 38989 ft 498 kts 90°
2026-05-07 12:00 51.02555 -18.03842 38987 ft 498 kts 90°
2026-05-07 12:00 51.02597 -17.92826 38990 ft 498 kts 90°
2026-05-07 12:01 51.02631 -17.81890 38986 ft 497 kts 90°
2026-05-07 12:01 51.02656 -17.70890 38988 ft 497 kts 90°
2026-05-07 12:02 51.02669 -17.59898 38991 ft 497 kts 90°
2026-05-07 12:02 51.02674 -17.50751 38989 ft 497 kts 90°
2026-05-07 12:03 51.02671 -17.39755 38990 ft 497 kts 90°
2026-05-07 12:03 51.02656 -17.28749 38988 ft 497 kts 90°
2026-05-07 12:04 51.02631 -17.17815 38992 ft 497 kts 91°
2026-05-07 12:04 51.02595 -17.06832 38992 ft 497 kts 91°
2026-05-07 12:05 51.02549 -16.95852 38992 ft 496 kts 91°
2026-05-07 12:05 51.02495 -16.84952 38992 ft 496 kts 91°
2026-05-07 12:06 51.02428 -16.73976 38992 ft 496 kts 91°
2026-05-07 12:06 51.02353 -16.62999 38991 ft 496 kts 91°
2026-05-07 12:07 51.02266 -16.52035 38988 ft 496 kts 91°
2026-05-07 12:07 51.02168 -16.41042 38990 ft 498 kts 91°
2026-05-07 12:08 51.02061 -16.30066 38987 ft 501 kts 91°
2026-05-07 12:08 51.01943 -16.19006 38990 ft 501 kts 91°
2026-05-07 12:09 51.01814 -16.07934 38985 ft 501 kts 91°
2026-05-07 12:09 51.01675 -15.96880 38992 ft 501 kts 92°
2026-05-07 12:10 51.01525 -15.85821 38989 ft 500 kts 92°
2026-05-07 12:10 51.01365 -15.74832 38985 ft 500 kts 92°
2026-05-07 12:11 51.01196 -15.63783 38987 ft 500 kts 92°
2026-05-07 12:11 51.01015 -15.52719 38988 ft 500 kts 92°
2026-05-07 12:12 51.00822 -15.41723 38994 ft 500 kts 92°
2026-05-07 12:12 51.00621 -15.30693 38987 ft 499 kts 92°
2026-05-07 12:13 51.00410 -15.19645 38994 ft 499 kts 92°
2026-05-07 12:13 51.00187 -15.08619 38987 ft 499 kts 92°
2026-05-07 12:14 50.99962 -14.97805 38994 ft 499 kts 92°
2026-05-07 12:14 50.99940 -14.86933 38995 ft 500 kts 90°
2026-05-07 12:15 51.00040 -14.75879 38991 ft 499 kts 90°
2026-05-07 12:15 51.00101 -14.64863 38984 ft 499 kts 90°
2026-05-07 12:16 51.00118 -14.53910 38986 ft 499 kts 90°
2026-05-07 12:16 51.00115 -14.42900 38989 ft 498 kts 90°
2026-05-07 12:17 51.00103 -14.32018 38987 ft 498 kts 90°
2026-05-07 12:17 51.00079 -14.21007 38992 ft 498 kts 91°
2026-05-07 12:18 51.00046 -14.10010 38984 ft 498 kts 91°
2026-05-07 12:18 50.99741 -13.99098 38978 ft 497 kts 99°
2026-05-07 12:19 50.98433 -13.88320 38982 ft 496 kts 103°
2026-05-07 12:19 50.96936 -13.77623 38979 ft 495 kts 103°
2026-05-07 12:20 50.95420 -13.67022 38983 ft 495 kts 103°
2026-05-07 12:20 50.93899 -13.56358 38983 ft 495 kts 103°
2026-05-07 12:21 50.92391 -13.45781 38980 ft 495 kts 103°
2026-05-07 12:21 50.90868 -13.35153 38980 ft 494 kts 103°
2026-05-07 12:22 50.89334 -13.24526 38981 ft 494 kts 104°
2026-05-07 12:22 50.87790 -13.13908 38988 ft 494 kts 104°
2026-05-07 12:23 50.86246 -13.03361 38984 ft 494 kts 104°
2026-05-07 12:23 50.84681 -12.92745 38984 ft 494 kts 104°
2026-05-07 12:24 50.83113 -12.82182 38978 ft 493 kts 104°
2026-05-07 12:24 50.81532 -12.71611 38981 ft 493 kts 104°
2026-05-07 12:25 50.79941 -12.61043 38980 ft 493 kts 104°
2026-05-07 12:25 50.78355 -12.50570 38983 ft 493 kts 104°
2026-05-07 12:26 50.76747 -12.40036 38983 ft 493 kts 104°
2026-05-07 12:26 50.75325 -12.30751 38981 ft 492 kts 104°
2026-05-07 12:27 50.73702 -12.20226 38981 ft 492 kts 104°
2026-05-07 12:27 50.72082 -12.09791 38982 ft 492 kts 104°
2026-05-07 12:28 50.70442 -11.99302 38981 ft 492 kts 105°
2026-05-07 12:28 50.68791 -11.88816 38982 ft 492 kts 105°
2026-05-07 12:29 50.67131 -11.78341 38976 ft 491 kts 105°
2026-05-07 12:29 50.65465 -11.67895 38983 ft 491 kts 105°
2026-05-07 12:30 50.63801 -11.57516 38978 ft 491 kts 105°
2026-05-07 12:30 50.62114 -11.47060 38974 ft 491 kts 105°
2026-05-07 12:31 50.60421 -11.36644 38981 ft 491 kts 105°
2026-05-07 12:31 50.58723 -11.26240 38983 ft 491 kts 105°
2026-05-07 12:32 50.57042 -11.16012 38983 ft 491 kts 105°
2026-05-07 12:32 50.55323 -11.05618 38983 ft 491 kts 105°
2026-05-07 12:33 50.52723 -10.90020 38983 ft 491 kts 105°
2026-05-07 12:33 50.50991 -10.79711 38981 ft 491 kts 105°
2026-05-07 12:34 50.49238 -10.69329 38975 ft 490 kts 105°
2026-05-07 12:34 50.47486 -10.59017 38983 ft 491 kts 105°
2026-05-07 12:35 50.45776 -10.49015 38981 ft 491 kts 106°
2026-05-07 12:35 50.43999 -10.38677 38987 ft 491 kts 106°
2026-05-07 12:36 50.42213 -10.28356 38988 ft 491 kts 106°
2026-05-07 12:36 50.40426 -10.18087 38993 ft 491 kts 106°
2026-05-07 12:37 50.38620 -10.07764 38985 ft 491 kts 106°
2026-05-07 12:37 50.36807 -9.97463 38987 ft 491 kts 106°
2026-05-07 12:38 50.34982 -9.87155 38992 ft 491 kts 106°
2026-05-07 12:38 50.33146 -9.76847 38991 ft 491 kts 106°
2026-05-07 12:39 50.31395 -9.67065 38985 ft 491 kts 106°
2026-05-07 12:39 50.29624 -9.57232 38989 ft 491 kts 107°
2026-05-07 12:40 50.27773 -9.47019 38999 ft 489 kts 107°
2026-05-07 12:40 50.25910 -9.36769 38991 ft 490 kts 107°
2026-05-07 12:41 50.24042 -9.26526 38990 ft 489 kts 107°
2026-05-07 12:41 50.22147 -9.16263 38987 ft 491 kts 107°
2026-05-07 12:42 50.20257 -9.06040 38989 ft 490 kts 107°
2026-05-07 12:42 50.18367 -8.95893 38998 ft 490 kts 107°
2026-05-07 12:43 50.16454 -8.85674 38993 ft 490 kts 107°
2026-05-07 12:43 50.14532 -8.75460 38992 ft 489 kts 107°
2026-05-07 12:44 50.12608 -8.65302 39000 ft 489 kts 107°